Presure
109 112 109 108 100 106 109 142 106 159 132 171 106 170 142 110 122 125 157 161 153 127 129 116 115 114 147 123 116 131 113 108 142 111 117 160 160 106 126 160 172 159 159 142 154 181 154
137 140 115 109 159 135 140 131 181 117 125 119 129 133 122 154 141 156 141 141 172 123 168 137 170 177 171 176 179 167 157 152 137 138 160 160 157 130 135 168 175 156 141 170 172 175 150
137 143 151 119 119 136 170 121 143 174 170 172 165 120 139 160 123 126 173 169 140 125 123 145 129 147 120 139 143 127 131 149 150 162 164 138 149 159 145 154 157 153 156 169 135 162 147
140 143 177 179 175 145 133 128 185 180 124 150 125 122 152 138 119 138 120 123 166 164 131 121 154 146 137 153 159 122 153 130 148 164 161 150 140 162 166 137 158 166 167 166 170 157 150
151 142 141 179 119 137 161 159 160 126 121 128 149 119 136 149 141 118 150 174 148 139 153 148 156 152 156 161 134 123 123 157 135 116 140 175 164 154 131 145 159 150 168 143 179 178 158
173 136 173 148 119 135 112 115 129 148 154 153 155 131 133 136 137 174 171 120 143 161 138 130 139 131 152 124 110 154 134 120 120 145 118 171 153 144 163 164 167 168 166 167 164 165 186
181 165 159 157 183 130 141 154 167 168 172 160 127 175 176 112 170 139 132 153 111 140 149 171 168 143 152 177 168 104 168 166 134 161 169 140 178 175 178 165 181 166 183 181 152 175 159
189 166 145 129 160 187 161 142 148 116 159 140 117 123 166 108 132 144 166 164 121 150 169 157 136 176 171 174 155 147 122 175 169 181 141 145 170 155 168 140 162 164 169 168 171 156 170
165 151 167 170 130 196 163 154 171 148 160 152 173 142 135 162 155 159 122 134 119 129 140 168 145 143 146 178 156 172 188 179 148 166 174 161 172 166 159 177 169 171 174 168 168 171 175
197 168 132 143 185 145 164 183 161 146 135 181 129 124 138 169 127 167 179 148 163 187 164 160 175 150 166 140 168 167 157 172 177 145 160 137 131 145 165 176 177 170 176 179 158 173 177
103 156 161 188 177 180 179 160 186 182 119 147 125 181 179 132 161 152 122 154 173 159 178 138 155 183 126 169 169 179 133 158 162 168 160 164 168 176 132 183 173 179 183 174 171 198 204
203 161 161 183 181 172 163 161 150 190 131 159 179 159 198 132 120 146 180 153 162 179 144 162 159 162 186 179 178 178 164 181 158 190 212 183 174 163 175 167 164 219 220 229 225 217 216
159 148 136 184 167 161 174 161 211 125 153 201 126 162 162 205 209 229 160 225 167 175 170 145 212 204 191 229 194 174 168 172 200 203 203 213 205 225 232 175 216 231 244 205 215 251 249
180 155 176 175 202 158 193 129 211 198 191 117 215 135 193 178 129 198 170 196 212 199 208 183 194 213 219 224 211 222 218 209 222 199 202 189 202 203 245 179 188 187 162 183 195 167 184
199 180 197 190 154 136 211 209 175 195 185 173 198 192 166 229 155 169 216 221 216 169 156 214 187 187 205 194 202 158 149 161 175 162 166 212 197 180 205 187 186 173 191 158 177 207 188
180 187 187 203 211 178 209 195 186 163 156 182 205 174 167 165 189 223 170 197 215 226 217 191 180 151 144 167 195 199 204 181 196 186 196 194 216 196 168 197 184 177 179 175 190 174 139
183 191 197 191 167 199 186 152 190 187 145 198 192 199 187 197 162 160 148 175 204 209 187 176 183 208 154 191 174 202 210 200 207 192 205 206 204 209 205 190 206 199 170 183 200 201 175
197 184 203 158 208 183 204 145 205 202 193 179 202 168 186 189 186 202 200 152 143 189 199 217 201 186 154 196 194 212 199 205 201 193 204 198 200 197 176 200 200 191 197 202 172 192 199
188 198 192 197 172 185 143 167 139 178 165 172 173 194 171 189 187 198 166 191 200 197 196 200 203 194 183 213 202 191 206 190 203 216 220 220 217 217 212 197 205 204 208 208 200 203 206
186 192 179 154 190 181 184 195 188 186 163 186 182 164 164 196 195 153 176 165 177 212 150 194 206 188 202 208 216 226 215 211 208 204 205 191 199 200 215 215 215 206 201 196 207 212 183
181 164 175 195 162 199 185 155 153 177 148 185 181 146 190 193 166 214 219 165 194 201 204 216 183 214 197 205 214 213 202 216 233 226 212 213 211 219 201 203 218 211 206 200 206 205 214
135 189 181 198 156 179 191 160 193 187 142 151 186 192 194 218 200 201 212 219 220 220 223 215 215 226 223 210 197 215 208 233 223 231 233 217 220 212 231 224 203 223 221 230 203 200 204
144 187 178 187 199 187 175 190 157 187 164 177 182 203 217 217 221 214 223 224 233 221 225 215 215 231 218 223 208 219 228 248 251 258 248 240 263 244 225 246 230 213 206 217 224 214 208
194 186 185 180 194 200 201 195 197 201 171 184 184 199 277 216 210 226 225 231 237 235 237 233 205 227 216 232 228 230 224 240 249 259 241 217 233 237 222 231 267 251 211 222 217 210 216
201 181 184 191 202 211 195 218 204 226 231 223 244 273 255 247 250 274 258 250 248 248 251 222 252 246 246 244 222 225 279 288 280 223 268 261 260 265 265 262 260 232 242 232 226 235 234
184 229 235 222 198 213 204 216 234 228 238 236 292 248 232 256 291 263 277 264 263 227 237 244 278 301 286 292 272 239 289 284 290 267 252 227 219 228 243 242 250 248 240 239 223 202 203
214 210 195 203 215 219 215 218 246 255 287 291 289 275 285 312 275 317 240 243 296 295 308 244 266 265 290 275 266 266 255 250 228 227 220 216 220 212 210 210 210 211 212 210 210 214 215
208 199 225 209 234 226 226 229 294 307 338 330 328 325 324 282 293 271 149 264 289 290 285 284 275 262 254 247 237 223 223 234 240 237 231 230 226 222 218 219 220 219 211 210 215 215 212
227 247 205 249 225 239 255 351 343 329 309 275 296 277 292 266 291 289 283 267 260 226 236 241 232 228 234 239 241 246 248 251 249 250 253 262 257 247 233 224 224 226 225 223 219 215 214
Wind_Speed
20 21 22 24 23 26 28 24 26 25 27 28 28 30 30 31 31 31 34 37 35 36 34 37 37 35 41 35 36 43 39 37 44 40 41 45 45 38 41 44 54 46 41 49 34 57 51
23 26 26 28 23 22 27 27 28 31 28 31 30 28 30 32 29 35 36 32 41 37 39 42 46 37 47 48 46 52 49 49 44 44 56 55 51 48 45 55 55 43 43 55 56 57 43
21 29 26 34 34 33 37 34 25 34 32 33 37 38 37 38 39 35 43 44 38 43 43 37 44 46 46 41 42 47 47 51 48 61 60 46 48 59 46 51 53 55 51 59 52 50 48
23 25 36 35 35 33 36 37 35 38 38 39 40 42 42 34 43 39 44 45 47 50 45 47 51 42 48 51 56 49 57 50 53 61 65 59 54 67 67 51 64 66 67 65 63 54 52
39 38 30 42 43 36 40 37 39 41 45 44 37 45 48 50 51 47 54 55 54 51 51 55 52 57 59 60 57 55 55 62 58 53 62 70 73 63 55 65 68 67 72 63 70 69 62
43 41 46 32 49 42 44 45 44 43 51 54 53 48 50 48 50 62 63 53 56 62 59 55 56 59 56 57 51 66 60 57 58 63 59 74 70 64 75 76 78 71 72 74 71 70 72
52 49 41 43 52 53 48 49 53 55 56 55 54 59 59 50 63 53 57 55 53 59 53 70 71 55 60 71 69 47 73 77 64 79 79 67 77 77 80 75 75 76 76 77 68 80 64
53 56 44 55 44 48 53 43 42 48 52 51 55 57 63 46 62 59 69 70 48 68 77 67 65 76 80 79 74 69 64 79 77 78 70 67 81 70 78 72 77 79 83 83 83 77 85
46 56 59 49 61 46 47 58 57 61 60 60 63 62 61 65 68 67 64 61 62 69 69 82 64 70 64 81 74 77 77 82 70 88 85 80 87 82 77 87 84 89 87 88 87 89 90
54 59 64 57 54 60 57 51 63 59 67 61 68 68 69 73 70 71 73 65 76 74 78 78 85 73 81 77 86 90 84 87 87 75 84 76 74 79 86 96 95 92 95 95 82 100 96
45 46 71 60 65 67 62 64 64 61 68 66 71 67 67 74 76 69 72 75 84 80 83 79 80 88 79 92 93 90 77 87 89 95 89 92 93 98 73 100 95 99 97 98 99 92 89
53 60 75 62 68 69 70 73 72 70 76 79 72 82 69 75 64 80 83 78 80 86 82 91 84 94 93 87 95 91 99 95 89 93 80 94 97 89 102 100 95 89 89 86 79 80 83
74 71 73 71 76 66 74 61 68 79 81 68 79 73 71 63 64 76 74 82 85 84 92 81 76 77 94 77 91 101 102 109 89 87 87 95 82 80 84 105 81 87 87 76 80 77 72
76 71 79 73 72 79 75 75 70 61 59 57 54 79 66 62 70 63 66 60 68 67 69 73 67 64 66 69 66 67 68 72 69 76 74 78 66 70 79 81 79 77 79 90 78 74 75
67 80 74 71 70 57 64 55 73 67 58 61 53 57 67 61 77 67 65 64 67 75 75 67 71 70 67 64 65 73 66 81 79 86 81 73 75 80 65 81 82 85 76 62 90 72 78
83 75 69 77 63 64 62 61 63 60 61 62 59 67 68 71 64 71 67 63 70 72 69 69 74 76 75 82 68 69 63 79 67 78 83 77 71 72 84 71 83 89 88 90 88 94 66
71 72 67 66 64 66 67 61 62 67 59 72 68 59 69 68 76 68 72 69 77 80 64 79 72 71 79 74 80 74 78 69 74 79 76 78 75 70 77 77 81 78 94 91 85 85 100
76 69 69 64 65 62 66 62 70 72 72 64 75 61 70 75 72 80 79 83 71 74 79 81 80 73 74 74 78 83 81 82 81 76 81 80 74 71 88 75 81 79 82 85 73 87 89
71 69 69 65 70 74 62 66 63 66 75 66 58 82 73 76 78 85 80 85 85 84 88 80 84 84 85 88 81 78 87 77 89 88 87 89 84 85 82 76 82 80 84 87 89 91 89
73 78 69 69 80 75 79 84 85 84 73 85 79 76 81 87 89 86 87 86 90 92 91 88 90 90 89 90 96 95 95 93 94 91 91 89 85 90 93 92 89 83 81 86 92 92 86
77 63 76 85 64 85 81 76 73 77 72 92 86 74 88 86 86 94 96 93 93 90 90 96 89 100 95 91 99 99 87 95 101 102 99 98 94 99 91 92 95 88 85 91 92 92 98
65 86 77 85 74 87 95 74 97 95 74 84 89 94 93 97 96 96 98 97 101 105 105 101 101 105 107 95 95 101 99 104 99 102 105 95 96 94 93 94 94 87 89 92 96 93 95
64 90 83 92 96 96 93 100 84 101 90 94 85 109 110 101 105 99 102 104 104 108 104 102 104 111 105 112 101 105 109 111 107 106 102 100 96 100 91 100 94 84 91 94 93 97 98
94 93 96 93 101 102 102 104 108 107 92 95 104 99 102 106 97 105 106 108 104 106 109 110 101 108 106 114 110 109 100 105 108 96 96 96 94 92 93 92 81 77 85 89 92 95 96
99 96 100 103 105 112 100 114 107 118 111 110 116 117 110 103 103 104 107 108 109 110 111 103 113 115 115 114 104 102 102 95 91 95 85 81 82 85 83 80 76 79 78 83 86 84 89
98 107 111 113 105 117 111 118 127 117 123 114 111 108 109 106 103 101 105 105 106 103 105 107 106 101 105 103 100 101 90 88 85 81 84 89 89 87 83 83 72 70 78 78 81 88 90
105 105 103 107 114 115 116 117 133 114 118 110 106 108 110 103 86 93 99 100 95 99 97 102 101 101 95 93 96 94 92 93 93 92 91 91 91 92 96 94 83 86 86 87 87 85 88
109 106 123 108 115 113 116 115 108 103 96 94 92 94 94 97 87 95 46 96 92 94 96 96 96 97 98 99 99 99 99 99 99 97 97 99 98 96 96 94 89 90 88 88 86 89 92
122 133 102 125 112 117 119 86 84 84 90 102 90 98 91 102 82 85 86 90 93 102 100 99 101 104 106 106 106 107 105 105 107 104 108 111 112 110 102 95 97 97 94 93 92 92 96
Wind_Direction
253 259 256 256 258 266 268 293 271 309 287 304 273 293 286 282 281 281 304 309 307 290 299 286 288 288 299 311 290 306 296 300 311 308 302 319 319 312 307 315 318 309 313 311 301 322 317
273 272 258 256 324 302 281 283 294 269 279 274 283 289 290 316 299 307 285 305 296 283 292 292 303 297 300 293 293 310 299 304 311 311 318 316 313 307 310 314 312 308 298 314 314 316 294
285 275 303 264 264 270 306 270 300 296 300 286 290 277 293 304 283 293 298 295 296 285 285 303 286 301 290 299 305 293 293 307 309 310 307 302 308 310 304 309 311 309 308 312 306 311 293
279 309 300 297 297 307 279 275 293 293 274 303 278 279 303 299 282 295 283 284 296 305 289 285 299 301 293 304 305 297 303 295 307 300 306 303 301 309 309 301 310 310 308 311 306 308 299
293 281 299 294 267 275 314 279 297 277 276 279 311 277 289 290 292 286 296 293 293 291 305 296 308 300 301 302 294 293 294 306 300 297 301 298 303 305 304 306 305 306 305 305 305 304 306
303 279 300 282 270 279 273 274 289 288 293 295 291 284 288 282 283 294 298 287 291 298 290 292 298 292 301 292 297 299 294 297 297 299 298 298 301 300 303 303 302 299 306 305 305 304 300
290 291 298 308 292 271 286 315 294 294 294 299 279 289 285 289 294 284 285 303 292 291 297 291 293 293 304 287 294 291 293 296 295 298 295 295 296 296 297 298 296 302 299 300 299 307 304
296 295 276 262 303 285 284 287 299 289 289 280 286 289 290 290 287 289 293 293 295 293 292 299 290 289 292 291 298 293 292 292 293 293 295 297 297 299 301 302 301 305 304 306 305 303 305
295 277 305 283 268 288 279 277 286 281 299 277 280 284 293 295 282 292 288 296 290 289 290 290 293 294 292 291 299 293 288 293 292 299 295 294 297 302 302 297 299 302 298 302 303 302 298
289 296 270 289 287 281 272 283 295 285 280 273 279 284 281 283 287 285 281 292 284 280 289 296 288 297 287 292 292 294 298 292 288 293 302 295 296 298 302 297 297 301 297 298 302 300 297
290 290 306 280 285 295 282 285 272 279 288 276 287 286 283 284 295 292 293 301 289 296 283 289 285 283 296 290 289 282 293 297 298 295 298 297 298 293 295 294 297 299 295 296 299 288 288
283 299 305 282 296 286 285 294 277 287 276 293 296 296 280 283 293 292 278 292 283 280 286 294 294 293 280 292 286 278 293 289 296 286 291 292 292 298 291 298 303 297 295 292 289 288 286
296 285 287 285 293 300 283 295 298 280 291 291 282 285 293 284 288 289 290 284 283 286 285 291 287 290 279 290 284 281 286 287 291 287 291 285 294 291 291 289 294 294 291 293 294 292 292
287 294 289 290 296 293 301 277 290 291 293 283 295 283 294 286 292 292 289 286 286 282 290 284 291 295 294 292 291 291 291 290 289 283 286 284 291 293 288 290 289 293 300 294 293 301 296
297 280 304 299 291 296 293 291 284 293 289 289 296 290 284 294 290 290 300 299 292 282 290 295 288 286 290 286 287 296 295 295 285 296 298 288 286 291 290 286 287 292 288 290 294 293 289
292 296 299 298 296 292 303 299 287 287 290 283 306 283 291 287 296 303 285 299 299 299 297 297 286 291 292 288 287 291 287 288 282 294 300 289 294 292 294 287 285 290 289 292 293 296 304
295 297 294 296 293 302 296 289 300 300 284 306 302 304 292 301 282 294 289 295 299 301 282 293 283 297 291 286 290 295 298 290 296 286 295 295 291 298 291 280 295 291 296 291 293 294 293
294 296 301 291 301 293 303 289 302 303 305 293 302 290 300 302 298 301 300 295 296 297 298 296 295 284 298 293 285 294 295 294 292 284 293 290 290 289 287 290 289 288 292 293 295 289 296
297 297 295 295 292 298 285 287 289 292 289 287 285 304 295 296 299 300 289 299 298 297 297 295 295 289 284 293 291 285 292 286 293 291 294 295 296 294 292 286 291 290 293 293 291 292 295
295 297 291 290 296 302 299 295 297 296 290 303 302 284 292 298 296 291 296 281 298 295 299 290 293 289 292 293 292 291 290 289 289 290 291 287 291 293 294 290 289 287 289 288 293 295 287
297 288 291 294 288 291 301 294 297 299 296 302 299 295 298 292 288 294 293 283 292 291 291 292 289 289 292 292 292 291 290 293 292 289 288 288 287 289 286 288 290 289 290 289 290 292 294
295 290 296 289 281 302 295 283 295 299 300 293 298 296 298 293 297 295 294 291 289 290 291 292 291 289 288 292 288 291 290 290 291 290 289 287 288 285 288 285 286 289 291 290 289 290 292
297 293 302 291 290 294 286 292 295 291 293 295 295 294 292 294 293 292 290 290 289 288 289 290 290 289 290 289 288 290 290 290 290 291 287 285 286 283 285 284 282 287 287 288 288 288 290
290 295 294 295 294 290 289 289 290 289 296 295 291 295 291 294 290 291 292 289 288 288 289 288 290 288 287 287 288 288 290 289 289 287 286 286 283 283 283 284 282 280 284 283 283 286 288
287 292 293 293 294 294 293 297 295 297 296 290 298 298 293 294 292 291 288 287 287 286 286 287 284 285 285 286 288 287 287 283 281 286 284 283 283 282 278 278 278 281 279 278 282 284 285
290 296 292 292 293 293 294 295 298 296 298 295 294 295 294 292 289 288 286 285 284 288 287 286 286 281 283 285 285 287 282 283 279 277 281 283 284 285 284 282 284 281 278 280 284 287 290
295 293 294 292 292 291 293 294 297 294 295 292 292 291 291 290 291 289 291 289 285 284 283 287 285 285 283 284 285 284 284 284 284 283 281 281 281 282 283 284 286 284 283 284 286 289 288
293 293 294 291 292 292 293 295 293 292 288 288 287 286 288 291 289 289 295 290 288 287 287 287 286 287 285 283 282 283 283 283 282 282 281 281 280 279 279 282 283 280 280 282 285 286 286
292 293 295 291 295 297 296 293 294 293 293 292 292 292 291 290 289 288 291 289 289 289 286 286 286 286 285 284 284 283 283 282 281 282 281 279 276 275 276 277 278 280 281 282 283 284 285